Weather History for Erie, PA

Change the Weather History Date:

Friday, October 18, 2013

  Actual Average Record
Temperature  
Mean Temperature 55 °F 52 °F  
Max Temperature 62 °F 60 °F 80 °F (1950)
Min Temperature 48 °F 45 °F 28 °F (1974)
Degree Days  
Heating Degree Days 10 13  
Month to date heating degree days 85 187  
Since 1 July heating degree days 217 311  
Cooling Degree Days 0 0  
Month to date cooling degree days 20 7  
Year to date cooling degree days 706 636  
Growing Degree Days 5 (Base 50)    
Moisture  
Dew Point 43 °F    
Average Humidity 63    
Maximum Humidity 86    
Minimum Humidity 39    
Precipitation  
Precipitation 0.03 in 0.12 in 2.76 in (1988)
Month to date precipitation 3.29 2.48  
Year to date precipitation 41.14 32.92  
Snow  
Snow 0.00 in 0.00 in - ()
Month to date snowfall 0.0 0.0  
Since 1 July snowfall 0.0 0.0  
Since 1 September snowfall 0.0 0.0  
Snow Depth 0.00 in    
Sea Level Pressure  
Sea Level Pressure 29.89 in    
Wind  
Wind Speed 12 mph (SW)    
Max Wind Speed 21 mph    
Max Gust Speed 30 mph    
Visibility 10 miles    
Events Rain    
T = Trace of Precipitation, MM = Missing Value Source: NWS Daily Summary

Daily Weather History Graph

Daily Weather History Graph

Search for Another Location

Airport:

Trip Planner

Search our weather history database for the weather conditions in past years. The results will help you decide how hot, cold, wet, or windy it might be!

Date:

Astronomy

Oct. 18, 2013 Rise Set
Actual Time 7:37 AM EDT 6:33 PM EDT
Civil Twilight 7:08 AM EDT 7:02 PM EDT
Nautical Twilight 6:36 AM EDT 7:34 PM EDT
Astronomical Twilight 6:03 AM EDT 8:07 PM EDT
Moon 6:22 PM EDT (10/18) 7:10 AM EDT (10/18)
Length of Visible Light 11h 53m
Length of Day
10h 56m
Full, 100% of the Moon is Illuminated
Oct 18
Full
Oct 18
Full
Oct 26
Last Quarter
Nov 3
New
Nov 10
First Quarter

Hourly Weather History & Observations

Time (EDT) Temp. Dew Point Humidity Pressure Visibility Wind Dir Wind Speed Gust Speed Precip Events Conditions
12:51 AM 50.0 °F 44.1 °F 80% 29.80 in 10.0 mi SSW 13.8 mph - 0.00 in   Mostly Cloudy
1:51 AM 50.0 °F 45.0 °F 83% 29.81 in 7.0 mi SSW 16.1 mph 26.5 mph 0.01 in Rain Light Rain
2:48 AM 50.0 °F 46.4 °F 87% 29.82 in 10.0 mi SW 11.5 mph 21.9 mph 0.01 in   Overcast
2:51 AM 50.0 °F 45.0 °F 83% 29.83 in 10.0 mi WSW 9.2 mph 21.9 mph 0.01 in   Overcast
2:59 AM 51.8 °F 46.4 °F 82% 29.83 in 10.0 mi SW 10.4 mph - N/A   Overcast
3:09 AM 53.6 °F 44.6 °F 72% 29.82 in 10.0 mi West 13.8 mph 24.2 mph 0.00 in Rain Light Rain
3:20 AM 51.8 °F 44.6 °F 76% 29.83 in 10.0 mi SW 10.4 mph 26.5 mph 0.00 in   Overcast
3:43 AM 53.6 °F 42.8 °F 67% 29.84 in 10.0 mi West 12.7 mph 25.3 mph 0.00 in   Overcast
3:51 AM 54.0 °F 42.1 °F 64% 29.84 in 10.0 mi West 16.1 mph 27.6 mph 0.00 in   Overcast
4:51 AM 53.1 °F 43.0 °F 69% 29.86 in 10.0 mi SW 9.2 mph 20.7 mph N/A   Overcast
5:15 AM 50.0 °F 44.6 °F 82% 29.87 in 10.0 mi Variable 6.9 mph - N/A   Overcast
5:47 AM 50.0 °F 44.6 °F 82% 29.88 in 10.0 mi SSW 13.8 mph 24.2 mph N/A   Overcast
5:51 AM 50.0 °F 45.0 °F 83% 29.88 in 10.0 mi SSW 11.5 mph - 0.00 in Rain Light Rain
6:51 AM 48.9 °F 45.0 °F 86% 29.89 in 10.0 mi SSW 9.2 mph - 0.00 in   Overcast
7:51 AM 48.9 °F 45.0 °F 86% 29.91 in 10.0 mi SSW 10.4 mph - N/A   Overcast
8:13 AM 48.2 °F 44.6 °F 87% 29.90 in 9.0 mi SSW 12.7 mph 20.7 mph 0.00 in Rain Light Rain
8:21 AM 48.2 °F 44.6 °F 87% 29.91 in 7.0 mi SW 9.2 mph - 0.00 in Rain Light Rain
8:33 AM 48.2 °F 44.6 °F 87% 29.91 in 4.0 mi SSW 8.1 mph - 0.01 in Rain Light Rain
8:40 AM 48.2 °F 44.6 °F 87% 29.91 in 8.0 mi SW 11.5 mph - 0.01 in Rain Light Rain
8:51 AM 48.9 °F 44.1 °F 83% 29.93 in 10.0 mi SW 12.7 mph - 0.01 in   Overcast
9:51 AM 48.9 °F 44.1 °F 83% 29.94 in 10.0 mi SSW 11.5 mph - N/A   Overcast
10:51 AM 52.0 °F 44.1 °F 74% 29.95 in 10.0 mi SW 11.5 mph - N/A   Mostly Cloudy
11:51 AM 55.9 °F 44.1 °F 64% 29.95 in 10.0 mi SW 11.5 mph - N/A   Mostly Cloudy
12:51 PM 59.0 °F 37.0 °F 44% 29.94 in 10.0 mi WSW 16.1 mph 24.2 mph N/A   Clear
1:51 PM 60.1 °F 39.0 °F 46% 29.93 in 10.0 mi WSW 16.1 mph 19.6 mph N/A   Partly Cloudy
2:51 PM 61.0 °F 41.0 °F 48% 29.92 in 10.0 mi West 12.7 mph 19.6 mph N/A   Mostly Cloudy
3:51 PM 62.1 °F 37.9 °F 41% 29.90 in 10.0 mi SW 10.4 mph 18.4 mph N/A   Partly Cloudy
4:51 PM 62.1 °F 39.0 °F 43% 29.90 in 10.0 mi West 6.9 mph 17.3 mph N/A   Partly Cloudy
5:51 PM 60.1 °F 39.9 °F 47% 29.90 in 10.0 mi SW 9.2 mph - N/A   Partly Cloudy
6:51 PM 55.9 °F 41.0 °F 57% 29.91 in 10.0 mi South 8.1 mph - N/A   Mostly Cloudy
7:51 PM 55.9 °F 41.0 °F 57% 29.91 in 10.0 mi South 9.2 mph - N/A   Overcast
8:51 PM 57.0 °F 41.0 °F 55% 29.91 in 10.0 mi South 13.8 mph - N/A   Mostly Cloudy
9:51 PM 55.0 °F 39.9 °F 57% 29.92 in 10.0 mi South 12.7 mph 20.7 mph N/A   Partly Cloudy
10:51 PM 55.9 °F 39.9 °F 55% 29.91 in 10.0 mi SSW 15.0 mph - N/A   Overcast
11:51 PM 55.9 °F 39.9 °F 55% 29.91 in 10.0 mi SSW 15.0 mph 23.0 mph N/A   Overcast